Time,TemperatureF,DewpointF,PressureIn,WindDirection,WindDirectionDegrees,WindSpeedMPH,WindSpeedGustMPH,Humidity,HourlyPrecipIn,Conditions,Clouds,dailyrainin,SoftwareType,DateUTC
2013-01-23 00:05:00,11.4,7.2,30.33,ESE,109,2.0,4.0,83,0.00,,---,0.00,VWS V14.01,2013-01-23 06:05:00,
2013-01-23 00:12:00,11.3,7.2,30.33,ESE,110,1.0,4.0,83,0.00,,---,0.00,VWS V14.01,2013-01-23 06:12:00,
2013-01-23 00:18:00,11.1,7.0,30.32,ESE,109,4.0,4.0,83,0.00,,---,0.00,VWS V14.01,2013-01-23 06:18:00,
2013-01-23 00:24:00,11.2,7.1,30.32,ESE,109,2.0,4.0,83,0.00,,---,0.00,VWS V14.01,2013-01-23 06:24:00,
2013-01-23 00:30:00,11.3,7.2,30.32,ESE,109,3.0,5.0,83,0.00,,---,0.00,VWS V14.01,2013-01-23 06:30:00,
2013-01-23 00:36:00,11.4,7.2,30.32,ESE,110,1.0,4.0,83,0.00,,---,0.00,VWS V14.01,2013-01-23 06:36:00,
2013-01-23 00:42:00,11.6,7.4,30.32,ESE,103,1.0,5.0,83,0.00,,---,0.00,VWS V14.01,2013-01-23 06:42:00,
2013-01-23 00:48:00,11.5,7.3,30.32,ESE,104,2.0,5.0,83,0.00,,---,0.00,VWS V14.01,2013-01-23 06:48:00,
2013-01-23 00:54:00,11.4,7.2,30.31,ESE,105,1.0,5.0,83,0.00,,---,0.00,VWS V14.01,2013-01-23 06:54:00,
2013-01-23 01:00:00,11.4,7.2,30.32,ESE,105,1.0,5.0,83,0.00,,---,0.00,VWS V14.01,2013-01-23 07:00:00,
2013-01-23 01:06:00,11.4,7.2,30.31,ESE,103,1.0,3.0,83,0.00,,---,0.00,VWS V14.01,2013-01-23 07:06:00,
2013-01-23 01:12:00,11.3,7.2,30.31,ESE,105,1.0,3.0,83,0.00,,---,0.00,VWS V14.01,2013-01-23 07:12:00,
2013-01-23 01:18:00,11.2,7.1,30.30,ESE,105,0.0,3.0,83,0.00,,---,0.00,VWS V14.01,2013-01-23 07:18:00,
2013-01-23 01:24:00,11.1,7.0,30.31,ESE,103,0.0,3.0,83,0.00,,---,0.00,VWS V14.01,2013-01-23 07:24:00,
2013-01-23 01:30:00,11.0,6.9,30.30,ESE,103,0.0,3.0,83,0.00,,---,0.00,VWS V14.01,2013-01-23 07:30:00,
2013-01-23 01:36:00,10.8,6.7,30.30,ESE,105,0.0,0.0,83,0.00,,---,0.00,VWS V14.01,2013-01-23 07:36:00,
2013-01-23 01:42:00,10.7,6.6,30.30,ESE,103,1.0,2.0,83,0.00,,---,0.00,VWS V14.01,2013-01-23 07:42:00,
2013-01-23 01:49:00,10.5,6.4,30.30,ESE,104,0.0,2.0,83,0.00,,---,0.00,VWS V14.01,2013-01-23 07:49:00,
2013-01-23 01:55:00,10.5,6.4,30.30,ESE,105,2.0,2.0,83,0.00,,---,0.00,VWS V14.01,2013-01-23 07:55:00,
2013-01-23 02:01:00,10.5,6.6,30.31,ESE,105,0.0,2.0,84,0.00,,---,0.00,VWS V14.01,2013-01-23 08:01:00,
2013-01-23 02:07:00,10.6,6.7,30.30,ESE,103,1.0,2.0,84,0.00,,---,0.00,VWS V14.01,2013-01-23 08:07:00,
2013-01-23 02:13:00,10.6,6.7,30.30,ESE,105,0.0,2.0,84,0.00,,---,0.00,VWS V14.01,2013-01-23 08:13:00,
2013-01-23 02:19:00,10.7,6.8,30.30,ESE,105,0.0,3.0,84,0.00,,---,0.00,VWS V14.01,2013-01-23 08:19:00,
2013-01-23 02:25:00,10.9,7.0,30.30,ESE,104,0.0,3.0,84,0.00,,---,0.00,VWS V14.01,2013-01-23 08:25:00,
2013-01-23 02:31:00,11.1,7.2,30.30,ESE,105,0.0,3.0,84,0.00,,---,0.00,VWS V14.01,2013-01-23 08:31:00,
2013-01-23 02:37:00,11.3,7.4,30.30,ESE,103,0.0,1.0,84,0.00,,---,0.00,VWS V14.01,2013-01-23 08:37:00,
2013-01-23 02:43:00,11.3,7.4,30.30,ESE,105,1.0,3.0,84,0.00,,---,0.00,VWS V14.01,2013-01-23 08:43:00,
2013-01-23 02:49:00,11.3,7.4,30.30,ESE,103,0.0,3.0,84,0.00,,---,0.00,VWS V14.01,2013-01-23 08:49:00,
2013-01-23 02:56:00,11.2,7.3,30.29,ESE,105,0.0,3.0,84,0.00,,---,0.00,VWS V14.01,2013-01-23 08:56:00,
2013-01-23 03:01:00,11.2,7.3,30.29,ESE,105,0.0,3.0,84,0.00,,---,0.00,VWS V14.01,2013-01-23 09:01:00,
2013-01-23 03:06:00,11.1,7.2,30.29,ESE,105,0.0,0.0,84,0.00,,---,0.00,VWS V14.01,2013-01-23 09:06:00,
2013-01-23 03:12:00,11.1,7.0,30.28,ESE,104,0.0,0.0,83,0.00,,---,0.00,VWS V14.01,2013-01-23 09:12:00,
2013-01-23 03:18:00,11.0,6.9,30.29,ESE,103,0.0,0.0,83,0.00,,---,0.00,VWS V14.01,2013-01-23 09:18:00,
2013-01-23 03:24:00,11.1,7.2,30.28,ESE,105,0.0,3.0,84,0.00,,---,0.00,VWS V14.01,2013-01-23 09:24:00,
2013-01-23 03:30:00,11.1,7.0,30.29,ESE,105,0.0,3.0,83,0.00,,---,0.00,VWS V14.01,2013-01-23 09:30:00,
2013-01-23 03:36:00,10.9,6.8,30.29,ESE,105,0.0,0.0,83,0.00,,---,0.00,VWS V14.01,2013-01-23 09:36:00,
2013-01-23 03:42:00,10.7,6.6,30.28,ESE,104,0.0,0.0,83,0.00,,---,0.00,VWS V14.01,2013-01-23 09:42:00,
2013-01-23 03:49:00,10.5,6.4,30.28,ESE,105,0.0,0.0,83,0.00,,---,0.00,VWS V14.01,2013-01-23 09:49:00,
2013-01-23 03:55:00,10.2,6.1,30.28,ESE,105,0.0,0.0,83,0.00,,---,0.00,VWS V14.01,2013-01-23 09:55:00,
2013-01-23 04:01:00,10.0,5.9,30.28,ESE,104,0.0,0.0,83,0.00,,---,0.00,VWS V14.01,2013-01-23 10:01:00,
2013-01-23 04:07:00,10.0,6.1,30.28,ESE,103,0.0,0.0,84,0.00,,---,0.00,VWS V14.01,2013-01-23 10:07:00,
2013-01-23 04:13:00,10.1,6.2,30.27,ESE,103,0.0,1.0,84,0.00,,---,0.00,VWS V14.01,2013-01-23 10:13:00,
2013-01-23 04:19:00,10.4,6.5,30.26,ESE,111,0.0,2.0,84,0.00,,---,0.00,VWS V14.01,2013-01-23 10:19:00,
2013-01-23 04:25:00,11.9,8.3,30.26,ESE,111,0.0,2.0,85,0.00,,---,0.00,VWS V14.01,2013-01-23 10:25:00,
2013-01-23 04:31:00,13.0,9.4,30.26,ESE,113,0.0,2.0,85,0.00,,---,0.00,VWS V14.01,2013-01-23 10:31:00,
2013-01-23 04:37:00,13.9,9.7,30.26,ESE,113,0.0,2.0,83,0.00,,---,0.00,VWS V14.01,2013-01-23 10:37:00,
2013-01-23 04:44:00,14.2,9.7,30.26,ESE,113,0.0,2.0,82,0.00,,---,0.00,VWS V14.01,2013-01-23 10:44:00,
2013-01-23 04:50:00,14.3,9.6,30.26,ESE,113,0.0,3.0,81,0.00,,---,0.00,VWS V14.01,2013-01-23 10:50:00,
2013-01-23 04:56:00,14.4,9.6,30.26,ESE,113,0.0,3.0,81,0.00,,---,0.00,VWS V14.01,2013-01-23 10:56:00,
2013-01-23 05:01:00,14.4,9.4,30.25,ESE,113,3.0,3.0,80,0.00,,---,0.00,VWS V14.01,2013-01-23 11:01:00,
2013-01-23 05:06:00,14.3,9.3,30.25,ESE,113,0.0,3.0,80,0.00,,---,0.00,VWS V14.01,2013-01-23 11:06:00,
2013-01-23 05:12:00,14.0,9.0,30.25,ESE,113,0.0,3.0,80,0.00,,---,0.00,VWS V14.01,2013-01-23 11:12:00,
2013-01-23 05:18:00,13.7,8.4,30.24,ESE,113,0.0,3.0,79,0.00,,---,0.00,VWS V14.01,2013-01-23 11:18:00,
2013-01-23 05:24:00,13.5,8.5,30.24,ESE,113,0.0,3.0,80,0.00,,---,0.00,VWS V14.01,2013-01-23 11:24:00,
2013-01-23 05:30:00,13.4,8.4,30.24,ESE,117,0.0,3.0,80,0.00,,---,0.00,VWS V14.01,2013-01-23 11:30:00,
2013-01-23 05:36:00,13.8,8.8,30.25,ESE,117,0.0,1.0,80,0.00,,---,0.00,VWS V14.01,2013-01-23 11:36:00,
2013-01-23 05:42:00,13.7,8.7,30.25,ESE,117,0.0,1.0,80,0.00,,---,0.00,VWS V14.01,2013-01-23 11:42:00,
2013-01-23 05:48:00,14.1,9.4,30.25,ESE,117,2.0,3.0,81,0.00,,---,0.00,VWS V14.01,2013-01-23 11:48:00,
2013-01-23 05:54:00,14.8,9.8,30.25,ESE,119,3.0,4.0,80,0.00,,---,0.00,VWS V14.01,2013-01-23 11:54:00,
2013-01-23 06:00:00,15.2,9.9,30.25,South,187,3.0,4.0,79,0.00,,---,0.00,VWS V14.01,2013-01-23 12:00:00,
2013-01-23 06:07:00,15.3,10.0,30.25,SSW,195,0.0,4.0,79,0.00,,---,0.00,VWS V14.01,2013-01-23 12:07:00,
2013-01-23 06:13:00,15.2,9.6,30.25,SSW,195,1.0,4.0,78,0.00,,---,0.00,VWS V14.01,2013-01-23 12:13:00,
2013-01-23 06:19:00,14.8,9.2,30.25,SSW,195,2.0,4.0,78,0.00,,---,0.00,VWS V14.01,2013-01-23 12:19:00,
2013-01-23 06:25:00,14.2,8.3,30.26,SSW,194,0.0,4.0,77,0.00,,---,0.00,VWS V14.01,2013-01-23 12:25:00,
2013-01-23 06:31:00,13.7,8.1,30.26,SSW,194,0.0,4.0,78,0.00,,---,0.00,VWS V14.01,2013-01-23 12:31:00,
2013-01-23 06:37:00,13.3,7.7,30.27,SSW,195,0.0,0.0,78,0.00,,---,0.00,VWS V14.01,2013-01-23 12:37:00,
2013-01-23 06:43:00,13.0,7.7,30.27,SSW,194,0.0,0.0,79,0.00,,---,0.00,VWS V14.01,2013-01-23 12:43:00,
2013-01-23 06:49:00,12.9,7.9,30.27,SSW,194,3.0,3.0,80,0.00,,---,0.00,VWS V14.01,2013-01-23 12:49:00,
2013-01-23 06:55:00,13.1,8.1,30.27,SSW,195,4.0,5.0,80,0.00,,---,0.00,VWS V14.01,2013-01-23 12:55:00,
2013-01-23 07:01:00,13.3,8.3,30.27,SSW,199,4.0,5.0,80,0.00,,---,0.00,VWS V14.01,2013-01-23 13:01:00,
2013-01-23 07:06:00,13.4,8.4,30.27,SSW,200,4.0,5.0,80,0.00,,---,0.00,VWS V14.01,2013-01-23 13:06:00,
2013-01-23 07:12:00,13.2,7.9,30.27,SSW,200,3.0,5.0,79,0.00,,---,0.00,VWS V14.01,2013-01-23 13:12:00,
2013-01-23 07:18:00,13.0,8.0,30.27,SSW,200,0.0,5.0,80,0.00,,---,0.00,VWS V14.01,2013-01-23 13:18:00,
2013-01-23 07:24:00,12.8,7.8,30.26,SSW,200,0.0,5.0,80,0.00,,---,0.00,VWS V14.01,2013-01-23 13:24:00,
2013-01-23 07:30:00,13.1,8.4,30.27,SSW,200,0.0,5.0,81,0.00,,---,0.00,VWS V14.01,2013-01-23 13:30:00,
2013-01-23 07:36:00,13.5,8.8,30.27,SSW,200,0.0,2.0,81,0.00,,---,0.00,VWS V14.01,2013-01-23 13:36:00,
2013-01-23 07:42:00,13.9,9.2,30.27,SSW,200,0.0,3.0,81,0.00,,---,0.00,VWS V14.01,2013-01-23 13:42:00,
2013-01-23 07:48:00,14.2,9.4,30.27,SSW,200,1.0,4.0,81,0.00,,---,0.00,VWS V14.01,2013-01-23 13:48:00,
2013-01-23 07:54:00,14.3,9.3,30.27,SSW,200,0.0,5.0,80,0.00,,---,0.00,VWS V14.01,2013-01-23 13:54:00,
2013-01-23 08:00:00,14.4,9.4,30.26,SSW,200,2.0,5.0,80,0.00,,---,0.00,VWS V14.01,2013-01-23 14:00:00,
2013-01-23 08:06:00,14.6,9.6,30.26,SSW,200,0.0,3.0,80,0.00,,---,0.00,VWS V14.01,2013-01-23 14:06:00,
2013-01-23 08:12:00,14.8,9.8,30.27,SSW,200,0.0,3.0,80,0.00,,---,0.00,VWS V14.01,2013-01-23 14:12:00,
2013-01-23 08:18:00,15.1,10.1,30.27,SSW,200,0.0,3.0,80,0.00,,---,0.00,VWS V14.01,2013-01-23 14:18:00,
2013-01-23 08:24:00,15.2,9.9,30.27,SSW,200,0.0,3.0,79,0.00,,---,0.00,VWS V14.01,2013-01-23 14:24:00,
2013-01-23 08:30:00,15.2,9.9,30.27,SSW,200,0.0,3.0,79,0.00,,---,0.00,VWS V14.01,2013-01-23 14:30:00,
2013-01-23 08:36:00,15.5,10.4,30.28,SSW,200,0.0,1.0,80,0.00,,---,0.00,VWS V14.01,2013-01-23 14:36:00,
2013-01-23 08:42:00,15.8,10.7,30.28,SSW,200,0.0,2.0,80,0.00,,---,0.00,VWS V14.01,2013-01-23 14:42:00,
2013-01-23 08:48:00,16.4,11.3,30.28,SSW,200,0.0,2.0,80,0.00,,---,0.00,VWS V14.01,2013-01-23 14:48:00,
2013-01-23 08:54:00,17.1,12.0,30.29,WNW,284,1.0,4.0,80,0.00,,---,0.00,VWS V14.01,2013-01-23 14:54:00,
2013-01-23 09:00:00,18.1,13.0,30.29,WNW,284,2.0,4.0,80,0.00,,---,0.00,VWS V14.01,2013-01-23 15:00:00,
2013-01-23 09:06:00,18.5,13.1,30.29,WNW,284,0.0,3.0,79,0.00,,---,0.00,VWS V14.01,2013-01-23 15:06:00,
2013-01-23 09:13:00,18.8,13.4,30.30,WNW,288,3.0,6.0,79,0.00,,---,0.00,VWS V14.01,2013-01-23 15:13:00,
2013-01-23 09:19:00,19.0,13.3,30.30,WNW,292,1.0,8.0,78,0.00,,---,0.00,VWS V14.01,2013-01-23 15:19:00,
2013-01-23 09:25:00,19.5,13.8,30.30,WNW,290,6.0,8.0,78,0.00,,---,0.00,VWS V14.01,2013-01-23 15:25:00,
2013-01-23 09:31:00,19.8,13.8,30.30,NNW,333,6.0,8.0,77,0.00,,---,0.00,VWS V14.01,2013-01-23 15:31:00,
2013-01-23 09:37:00,20.0,14.0,30.31,NNW,332,9.0,10.0,77,0.00,,---,0.00,VWS V14.01,2013-01-23 15:37:00,
2013-01-23 09:43:00,20.0,14.0,30.32,NW,325,6.0,12.0,77,0.00,,---,0.00,VWS V14.01,2013-01-23 15:43:00,
2013-01-23 09:49:00,19.9,13.9,30.32,NNW,331,3.0,12.0,77,0.00,,---,0.00,VWS V14.01,2013-01-23 15:49:00,
2013-01-23 09:55:00,20.2,14.2,30.32,NW,323,3.0,12.0,77,0.00,,---,0.00,VWS V14.01,2013-01-23 15:55:00,
2013-01-23 10:01:00,20.5,14.4,30.32,NNW,346,2.0,12.0,77,0.00,,---,0.00,VWS V14.01,2013-01-23 16:01:00,
2013-01-23 10:07:00,20.7,14.4,30.32,NW,306,7.0,9.0,76,0.00,,---,0.00,VWS V14.01,2013-01-23 16:07:00,
2013-01-23 10:13:00,21.2,15.1,30.33,NNW,332,7.0,9.0,77,0.00,,---,0.00,VWS V14.01,2013-01-23 16:13:00,
2013-01-23 10:19:00,21.4,15.0,30.33,NW,324,3.0,9.0,76,0.00,,---,0.00,VWS V14.01,2013-01-23 16:19:00,
2013-01-23 10:25:00,21.6,15.2,30.33,NNW,344,6.0,9.0,76,0.00,,---,0.00,VWS V14.01,2013-01-23 16:25:00,
2013-01-23 10:36:00,21.5,14.8,30.34,NNW,344,9.0,12.0,75,0.00,,---,0.00,VWS V14.01,2013-01-23 16:36:00,
2013-01-23 10:42:00,21.7,15.3,30.33,North,350,8.0,12.0,76,0.00,,---,0.00,VWS V14.01,2013-01-23 16:42:00,
2013-01-23 10:48:00,22.0,15.3,30.34,NNW,337,3.0,12.0,75,0.00,,---,0.00,VWS V14.01,2013-01-23 16:48:00,
2013-01-23 10:55:00,22.3,15.3,30.34,North,5,10.0,14.0,74,0.00,,---,0.00,VWS V14.01,2013-01-23 16:55:00,
2013-01-23 11:01:00,22.5,16.1,30.34,NNW,340,5.0,14.0,76,0.00,,---,0.00,VWS V14.01,2013-01-23 17:01:00,
2013-01-23 11:07:00,22.8,16.1,30.33,North,355,12.0,13.0,75,0.00,,---,0.00,VWS V14.01,2013-01-23 17:07:00,
2013-01-23 11:13:00,23.3,16.9,30.34,NNE,22,13.0,13.0,76,0.00,,---,0.00,VWS V14.01,2013-01-23 17:13:00,
2013-01-23 11:19:00,23.6,16.9,30.34,North,355,9.0,13.0,75,0.00,,---,0.00,VWS V14.01,2013-01-23 17:19:00,
2013-01-23 11:25:00,24.2,17.7,30.34,NNW,342,12.0,13.0,76,0.00,,---,0.00,VWS V14.01,2013-01-23 17:25:00,
2013-01-23 11:31:00,24.6,17.5,30.34,NW,315,5.0,13.0,74,0.00,,---,0.00,VWS V14.01,2013-01-23 17:31:00,
2013-01-23 11:37:00,25.2,18.4,30.34,NNW,344,4.0,11.0,75,0.00,,---,0.00,VWS V14.01,2013-01-23 17:37:00,
2013-01-23 11:43:00,25.6,18.5,30.34,NNW,328,9.0,11.0,74,0.00,,---,0.00,VWS V14.01,2013-01-23 17:43:00,
2013-01-23 11:49:00,26.1,19.0,30.34,WNW,298,6.0,12.0,74,0.00,,---,0.00,VWS V14.01,2013-01-23 17:49:00,
2013-01-23 11:55:00,26.4,18.9,30.34,NNW,336,9.0,13.0,73,0.00,,---,0.00,VWS V14.01,2013-01-23 17:55:00,
2013-01-23 12:01:00,26.7,19.2,30.34,NNW,327,3.0,13.0,73,0.00,,---,0.00,VWS V14.01,2013-01-23 18:01:00,
2013-01-23 12:07:00,26.6,18.8,30.34,North,351,10.0,14.0,72,0.00,,---,0.00,VWS V14.01,2013-01-23 18:07:00,
2013-01-23 12:13:00,26.6,18.8,30.34,NNW,333,4.0,14.0,72,0.00,,---,0.00,VWS V14.01,2013-01-23 18:13:00,
2013-01-23 12:19:00,26.9,19.4,30.34,NNW,334,6.0,14.0,73,0.00,,---,0.00,VWS V14.01,2013-01-23 18:19:00,
2013-01-23 12:25:00,27.1,19.6,30.34,NW,314,12.0,14.0,73,0.00,,---,0.00,VWS V14.01,2013-01-23 18:25:00,
2013-01-23 12:31:00,27.4,19.9,30.35,NNW,336,5.0,14.0,73,0.00,,---,0.00,VWS V14.01,2013-01-23 18:31:00,
2013-01-23 12:37:00,27.5,19.7,30.35,NNW,348,9.0,16.0,72,0.00,,---,0.00,VWS V14.01,2013-01-23 18:37:00,
2013-01-23 12:43:00,26.9,18.8,30.35,NW,318,7.0,16.0,71,0.00,,---,0.00,VWS V14.01,2013-01-23 18:43:00,
2013-01-23 12:49:00,27.4,19.9,30.35,NW,305,6.0,16.0,73,0.00,,---,0.00,VWS V14.01,2013-01-23 18:49:00,
2013-01-23 12:55:00,27.4,19.2,30.35,NW,311,8.0,16.0,71,0.00,,---,0.00,VWS V14.01,2013-01-23 18:55:00,
2013-01-23 13:01:00,27.4,19.6,30.35,NW,304,3.0,16.0,72,0.00,,---,0.00,VWS V14.01,2013-01-23 19:01:00,
2013-01-23 13:08:00,28.1,20.2,30.35,NW,315,10.0,12.0,72,0.00,,---,0.00,VWS V14.01,2013-01-23 19:08:00,
2013-01-23 13:14:00,28.1,19.9,30.35,NW,314,6.0,12.0,71,0.00,,---,0.00,VWS V14.01,2013-01-23 19:14:00,
2013-01-23 13:20:00,28.3,20.1,30.35,NW,317,7.0,14.0,71,0.00,,---,0.00,VWS V14.01,2013-01-23 19:20:00,
2013-01-23 13:26:00,28.3,20.1,30.35,NW,323,10.0,14.0,71,0.00,,---,0.00,VWS V14.01,2013-01-23 19:26:00,
2013-01-23 13:32:00,28.4,20.2,30.35,NW,318,13.0,13.0,71,0.00,,---,0.00,VWS V14.01,2013-01-23 19:32:00,
2013-01-23 13:38:00,28.3,19.8,30.35,WNW,301,8.0,19.0,70,0.00,,---,0.00,VWS V14.01,2013-01-23 19:38:00,
2013-01-23 13:44:00,28.2,20.0,30.35,NW,325,14.0,19.0,71,0.00,,---,0.00,VWS V14.01,2013-01-23 19:44:00,
2013-01-23 13:50:00,28.2,20.0,30.35,NNW,339,9.0,19.0,71,0.00,,---,0.00,VWS V14.01,2013-01-23 19:50:00,
2013-01-23 13:56:00,28.1,19.9,30.35,NNW,341,9.0,19.0,71,0.00,,---,0.00,VWS V14.01,2013-01-23 19:56:00,
2013-01-23 14:02:00,28.3,20.1,30.34,NW,323,11.0,12.0,71,0.00,,---,0.00,VWS V14.01,2013-01-23 20:02:00,
2013-01-23 14:08:00,28.7,20.2,30.35,NNW,338,10.0,17.0,70,0.00,,---,0.00,VWS V14.01,2013-01-23 20:08:00,
2013-01-23 14:14:00,28.6,20.1,30.35,NW,326,10.0,17.0,70,0.00,,---,0.00,VWS V14.01,2013-01-23 20:14:00,
2013-01-23 14:20:00,28.8,20.6,30.35,NNW,331,5.0,17.0,71,0.00,,---,0.00,VWS V14.01,2013-01-23 20:20:00,
2013-01-23 14:26:00,28.9,20.0,30.35,NNW,344,5.0,17.0,69,0.00,,---,0.00,VWS V14.01,2013-01-23 20:26:00,
2013-01-23 14:32:00,28.8,19.6,30.35,North,5,6.0,13.0,68,0.00,,---,0.00,VWS V14.01,2013-01-23 20:32:00,
2013-01-23 14:38:00,28.5,19.3,30.35,North,9,7.0,13.0,68,0.00,,---,0.00,VWS V14.01,2013-01-23 20:38:00,
2013-01-23 14:44:00,28.5,19.6,30.36,NNW,342,12.0,15.0,69,0.00,,---,0.00,VWS V14.01,2013-01-23 20:44:00,
2013-01-23 14:50:00,28.7,19.8,30.36,NNW,341,9.0,15.0,69,0.00,,---,0.00,VWS V14.01,2013-01-23 20:50:00,
2013-01-23 14:56:00,28.6,19.4,30.36,NNW,344,10.0,24.0,68,0.00,,---,0.00,VWS V14.01,2013-01-23 20:56:00,
2013-01-23 15:02:00,28.6,19.4,30.36,NNW,348,9.0,12.0,68,0.00,,---,0.00,VWS V14.01,2013-01-23 21:02:00,
2013-01-23 15:08:00,28.8,19.6,30.36,NNW,329,8.0,15.0,68,0.00,,---,0.00,VWS V14.01,2013-01-23 21:08:00,
2013-01-23 15:15:00,28.5,18.6,30.36,North,360,16.0,16.0,66,0.00,,---,0.00,VWS V14.01,2013-01-23 21:15:00,
2013-01-23 15:21:00,28.0,18.5,30.36,North,5,11.0,17.0,67,0.00,,---,0.00,VWS V14.01,2013-01-23 21:21:00,
2013-01-23 15:27:00,27.9,18.7,30.36,NNW,348,14.0,17.0,68,0.00,,---,0.00,VWS V14.01,2013-01-23 21:27:00,
2013-01-23 15:33:00,28.0,18.8,30.37,NNW,344,9.0,15.0,68,0.00,,---,0.00,VWS V14.01,2013-01-23 21:33:00,
2013-01-23 15:39:00,27.9,18.4,30.37,NNW,329,7.0,17.0,67,0.00,,---,0.00,VWS V14.01,2013-01-23 21:39:00,
2013-01-23 15:45:00,28.0,18.8,30.37,NNW,336,12.0,18.0,68,0.00,,---,0.00,VWS V14.01,2013-01-23 21:45:00,
2013-01-23 15:51:00,27.8,18.6,30.37,North,360,8.0,18.0,68,0.00,,---,0.00,VWS V14.01,2013-01-23 21:51:00,
2013-01-23 15:57:00,27.5,18.3,30.38,NW,326,9.0,18.0,68,0.00,,---,0.00,VWS V14.01,2013-01-23 21:57:00,
2013-01-23 16:03:00,27.4,18.2,30.38,NNW,332,8.0,13.0,68,0.00,,---,0.00,VWS V14.01,2013-01-23 22:03:00,
2013-01-23 16:09:00,27.4,17.9,30.39,NW,325,3.0,15.0,67,0.00,,---,0.00,VWS V14.01,2013-01-23 22:09:00,
2013-01-23 16:15:00,27.3,17.8,30.39,NNW,330,8.0,17.0,67,0.00,,---,0.00,VWS V14.01,2013-01-23 22:15:00,
2013-01-23 16:21:00,27.3,17.8,30.40,NNW,330,10.0,17.0,67,0.00,,---,0.00,VWS V14.01,2013-01-23 22:21:00,
2013-01-23 16:27:00,27.0,17.2,30.41,NW,318,6.0,18.0,66,0.00,,---,0.00,VWS V14.01,2013-01-23 22:27:00,
2013-01-23 16:33:00,26.7,16.5,30.41,North,360,10.0,17.0,65,0.00,,---,0.00,VWS V14.01,2013-01-23 22:33:00,
2013-01-23 16:39:00,26.5,16.7,30.40,NNW,334,19.0,19.0,66,0.00,,---,0.00,VWS V14.01,2013-01-23 22:39:00,
2013-01-23 16:46:00,26.2,16.4,30.40,NNW,341,8.0,19.0,66,0.00,,---,0.00,VWS V14.01,2013-01-23 22:46:00,
2013-01-23 16:52:00,25.9,16.1,30.40,NW,324,5.0,19.0,66,0.00,,---,0.00,VWS V14.01,2013-01-23 22:52:00,
2013-01-23 16:58:00,25.7,15.6,30.40,NNW,339,11.0,19.0,65,0.00,,---,0.00,VWS V14.01,2013-01-23 22:58:00,
2013-01-23 17:04:00,25.5,15.7,30.41,NNW,337,7.0,12.0,66,0.00,,---,0.00,VWS V14.01,2013-01-23 23:04:00,
2013-01-23 17:10:00,25.3,15.2,30.41,NNW,331,4.0,15.0,65,0.00,,---,0.00,VWS V14.01,2013-01-23 23:10:00,
2013-01-23 17:16:00,24.9,15.2,30.42,NNW,338,6.0,15.0,66,0.00,,---,0.00,VWS V14.01,2013-01-23 23:16:00,
2013-01-23 17:22:00,24.5,14.8,30.42,NNW,342,13.0,15.0,66,0.00,,---,0.00,VWS V14.01,2013-01-23 23:22:00,
2013-01-23 17:28:00,24.1,14.4,30.42,NNW,331,13.0,15.0,66,0.00,,---,0.00,VWS V14.01,2013-01-23 23:28:00,
2013-01-23 17:34:00,23.7,14.0,30.42,NNW,337,5.0,16.0,66,0.00,,---,0.00,VWS V14.01,2013-01-23 23:34:00,
2013-01-23 17:40:00,23.3,14.0,30.42,NNW,340,13.0,17.0,67,0.00,,---,0.00,VWS V14.01,2013-01-23 23:40:00,
2013-01-23 17:46:00,22.9,13.9,30.43,North,355,10.0,17.0,68,0.00,,---,0.00,VWS V14.01,2013-01-23 23:46:00,
2013-01-23 17:52:00,22.6,14.3,30.43,North,5,8.0,17.0,70,0.00,,---,0.00,VWS V14.01,2013-01-23 23:52:00,
2013-01-23 17:58:00,22.5,14.2,30.44,NNW,337,12.0,17.0,70,0.00,,---,0.00,VWS V14.01,2013-01-23 23:58:00,
2013-01-23 18:04:00,22.2,13.9,30.44,North,360,4.0,16.0,70,0.00,,---,0.00,VWS V14.01,2013-01-24 00:04:00,
2013-01-23 18:10:00,22.0,13.7,30.45,NNW,346,9.0,16.0,70,0.00,,---,0.00,VWS V14.01,2013-01-24 00:10:00,
2013-01-23 18:16:00,21.7,13.8,30.45,North,350,6.0,16.0,71,0.00,,---,0.00,VWS V14.01,2013-01-24 00:16:00,
2013-01-23 18:22:00,21.4,13.8,30.45,North,9,7.0,16.0,72,0.00,,---,0.00,VWS V14.01,2013-01-24 00:22:00,
2013-01-23 18:28:00,21.1,13.5,30.46,NNW,345,6.0,16.0,72,0.00,,---,0.00,VWS V14.01,2013-01-24 00:28:00,
2013-01-23 18:34:00,20.8,13.5,30.45,North,350,7.0,10.0,73,0.00,,---,0.00,VWS V14.01,2013-01-24 00:34:00,
2013-01-23 18:40:00,20.6,13.3,30.46,WNW,301,6.0,10.0,73,0.00,,---,0.00,VWS V14.01,2013-01-24 00:40:00,
2013-01-23 18:46:00,20.3,13.4,30.46,NNW,334,2.0,13.0,74,0.00,,---,0.00,VWS V14.01,2013-01-24 00:46:00,
2013-01-23 18:52:00,20.1,13.2,30.46,NNW,348,8.0,13.0,74,0.00,,---,0.00,VWS V14.01,2013-01-24 00:52:00,
2013-01-23 18:58:00,19.9,13.0,30.46,NNW,340,8.0,13.0,74,0.00,,---,0.00,VWS V14.01,2013-01-24 00:58:00,
2013-01-23 19:05:00,19.7,12.5,30.47,North,355,8.0,14.0,73,0.00,,---,0.00,VWS V14.01,2013-01-24 01:05:00,
2013-01-23 19:11:00,19.7,12.1,30.47,North,355,13.0,15.0,72,0.00,,---,0.00,VWS V14.01,2013-01-24 01:11:00,
2013-01-23 19:17:00,19.5,12.0,30.48,NNW,338,7.0,15.0,72,0.00,,---,0.00,VWS V14.01,2013-01-24 01:17:00,
2013-01-23 19:23:00,19.3,11.8,30.48,North,355,10.0,15.0,72,0.00,,---,0.00,VWS V14.01,2013-01-24 01:23:00,
2013-01-23 19:29:00,19.0,10.8,30.49,North,5,9.0,19.0,70,0.00,,---,0.00,VWS V14.01,2013-01-24 01:29:00,
2013-01-23 19:35:00,18.7,10.2,30.49,NNE,28,11.0,16.0,69,0.00,,---,0.00,VWS V14.01,2013-01-24 01:35:00,
2013-01-23 19:41:00,18.4,10.3,30.49,NNW,336,8.0,16.0,70,0.00,,---,0.00,VWS V14.01,2013-01-24 01:41:00,
2013-01-23 19:47:00,18.1,10.0,30.49,NNW,346,10.0,16.0,70,0.00,,---,0.00,VWS V14.01,2013-01-24 01:47:00,
2013-01-23 19:53:00,17.9,10.1,30.49,NNW,341,6.0,16.0,71,0.00,,---,0.00,VWS V14.01,2013-01-24 01:53:00,
2013-01-23 19:59:00,17.7,9.9,30.49,North,360,17.0,22.0,71,0.00,,---,0.00,VWS V14.01,2013-01-24 01:59:00,
2013-01-23 20:05:00,17.5,9.4,30.50,NNE,26,7.0,17.0,70,0.00,,---,0.00,VWS V14.01,2013-01-24 02:05:00,
2013-01-23 20:11:00,17.1,8.7,30.50,NNW,346,9.0,20.0,69,0.00,,---,0.00,VWS V14.01,2013-01-24 02:11:00,
2013-01-23 20:17:00,16.8,8.7,30.49,North,349,12.0,20.0,70,0.00,,---,0.00,VWS V14.01,2013-01-24 02:17:00,
2013-01-23 20:23:00,16.6,8.5,30.50,NNW,345,7.0,20.0,70,0.00,,---,0.00,VWS V14.01,2013-01-24 02:23:00,
2013-01-23 20:29:00,16.4,8.3,30.51,NE,39,5.0,20.0,70,0.00,,---,0.00,VWS V14.01,2013-01-24 02:29:00,
2013-01-23 20:35:00,16.1,7.7,30.51,North,349,18.0,21.0,69,0.00,,---,0.00,VWS V14.01,2013-01-24 02:35:00,
2013-01-23 20:41:00,15.7,7.3,30.51,North,360,13.0,21.0,69,0.00,,---,0.00,VWS V14.01,2013-01-24 02:41:00,
2013-01-23 20:47:00,15.3,6.7,30.51,NNE,14,7.0,21.0,68,0.00,,---,0.00,VWS V14.01,2013-01-24 02:47:00,
2013-01-23 20:53:00,15.1,6.1,30.51,North,355,7.0,21.0,67,0.00,,---,0.00,VWS V14.01,2013-01-24 02:53:00,
2013-01-23 20:59:00,14.9,5.9,30.51,ENE,65,10.0,21.0,67,0.00,,---,0.00,VWS V14.01,2013-01-24 02:59:00,
2013-01-23 21:05:00,14.7,5.8,30.51,NNE,30,8.0,16.0,67,0.00,,---,0.00,VWS V14.01,2013-01-24 03:05:00,
2013-01-23 21:12:00,14.5,5.6,30.52,NNW,345,9.0,16.0,67,0.00,,---,0.00,VWS V14.01,2013-01-24 03:12:00,
2013-01-23 21:18:00,14.3,5.4,30.52,NNW,346,8.0,17.0,67,0.00,,---,0.00,VWS V14.01,2013-01-24 03:18:00,
2013-01-23 21:24:00,14.0,5.4,30.53,North,355,6.0,17.0,68,0.00,,---,0.00,VWS V14.01,2013-01-24 03:24:00,
2013-01-23 21:30:00,13.8,5.2,30.53,North,360,11.0,17.0,68,0.00,,---,0.00,VWS V14.01,2013-01-24 03:30:00,
2013-01-23 21:36:00,13.6,5.3,30.53,NNE,26,7.0,12.0,69,0.00,,---,0.00,VWS V14.01,2013-01-24 03:36:00,
2013-01-23 21:42:00,13.4,5.1,30.52,North,360,6.0,12.0,69,0.00,,---,0.00,VWS V14.01,2013-01-24 03:42:00,
2013-01-23 21:48:00,13.1,5.2,30.53,NNW,342,7.0,12.0,70,0.00,,---,0.00,VWS V14.01,2013-01-24 03:48:00,
2013-01-23 21:54:00,12.9,5.0,30.53,North,355,4.0,12.0,70,0.00,,---,0.00,VWS V14.01,2013-01-24 03:54:00,
2013-01-23 22:00:00,12.7,4.8,30.54,North,350,4.0,12.0,70,0.00,,---,0.00,VWS V14.01,2013-01-24 04:00:00,
2013-01-23 22:06:00,12.6,5.0,30.55,NNW,338,4.0,8.0,71,0.00,,---,0.00,VWS V14.01,2013-01-24 04:06:00,
2013-01-23 22:12:00,12.4,4.8,30.55,NNW,340,5.0,9.0,71,0.00,,---,0.00,VWS V14.01,2013-01-24 04:12:00,
2013-01-23 22:18:00,12.2,4.9,30.56,North,350,8.0,9.0,72,0.00,,---,0.00,VWS V14.01,2013-01-24 04:18:00,
2013-01-23 22:24:00,12.0,4.7,30.56,NNW,334,3.0,9.0,72,0.00,,---,0.00,VWS V14.01,2013-01-24 04:24:00,
2013-01-23 22:30:00,11.8,4.8,30.56,North,351,5.0,9.0,73,0.00,,---,0.00,VWS V14.01,2013-01-24 04:30:00,
2013-01-23 22:36:00,11.8,4.8,30.55,NNW,342,4.0,11.0,73,0.00,,---,0.00,VWS V14.01,2013-01-24 04:36:00,
2013-01-23 22:42:00,11.7,4.7,30.56,NNW,344,7.0,11.0,73,0.00,,---,0.00,VWS V14.01,2013-01-24 04:42:00,
2013-01-23 22:48:00,11.7,4.7,30.56,North,355,7.0,11.0,73,0.00,,---,0.00,VWS V14.01,2013-01-24 04:48:00,
2013-01-23 22:54:00,11.4,4.1,30.56,North,9,5.0,11.0,72,0.00,,---,0.00,VWS V14.01,2013-01-24 04:54:00,
2013-01-23 23:01:00,11.3,4.1,30.56,North,349,6.0,11.0,72,0.00,,---,0.00,VWS V14.01,2013-01-24 05:01:00,
2013-01-23 23:05:00,11.1,3.8,30.57,North,360,7.0,10.0,72,0.00,,---,0.00,VWS V14.01,2013-01-24 05:05:00,
2013-01-23 23:11:00,10.8,3.3,30.58,North,355,10.0,12.0,71,0.00,,---,0.00,VWS V14.01,2013-01-24 05:11:00,
2013-01-23 23:15:00,10.7,2.9,30.58,North,360,5.0,12.0,70,0.00,,---,0.00,VWS V14.01,2013-01-24 05:15:00,
2013-01-23 23:21:00,10.4,2.9,30.58,NNW,346,4.0,12.0,71,0.00,,---,0.00,VWS V14.01,2013-01-24 05:21:00,
2013-01-23 23:23:00,10.2,2.7,30.58,North,360,7.0,12.0,71,0.00,,---,0.00,VWS V14.01,2013-01-24 05:23:00,
2013-01-23 23:29:00,9.9,2.4,30.58,North,351,5.0,12.0,71,0.00,,---,0.00,VWS V14.01,2013-01-24 05:29:00,
2013-01-23 23:35:00,9.8,2.0,30.58,North,360,9.0,12.0,70,0.00,,---,0.00,VWS V14.01,2013-01-24 05:35:00,
2013-01-23 23:41:00,9.5,1.7,30.57,NNE,14,8.0,13.0,70,0.00,,---,0.00,VWS V14.01,2013-01-24 05:41:00,
2013-01-23 23:47:00,9.3,1.5,30.57,North,5,4.0,13.0,70,0.00,,---,0.00,VWS V14.01,2013-01-24 05:47:00,
2013-01-23 23:53:00,9.0,1.2,30.58,North,5,8.0,13.0,70,0.00,,---,0.00,VWS V14.01,2013-01-24 05:53:00,
2013-01-23 23:59:00,8.8,1.3,30.58,NNW,331,6.0,13.0,71,0.00,,---,0.00,VWS V14.01,2013-01-24 05:59:00,